EW3394 Weather Reports


time (UTC)temp
C
wind
direction
speed
KPH
gust
KPH
rain 1hr
cm
rain 24hr
cm
rain mn
cm
humidity
%
barometer
mb
20260510104514 11 193 1.6 6.4 0.00 0.56 0.00 95 1011.3
20260510103016 10 212 1.6 11.3 0.00 0.56 0.00 95 1011.2
20260510101516 10 360 0.0 6.4 0.00 0.61 0.00 95 1010.9
20260510100018 10 360 1.6 4.8 0.00 0.66 0.00 95 1010.7
20260510094529 10 180 0.0 11.3 0.00 0.74 0.00 95 1010.3
20260510093012 10 180 0.0 6.4 0.00 0.86 0.00 95 1010.6
20260510091523 10 219 0.0 4.8 0.00 0.97 0.00 95 1010.3
20260510090020 10 246 1.6 4.8 0.00 1.04 0.00 95 1010.0
20260510084521 10 360 0.0 8.0 0.00 1.09 0.00 96 1010.1
20260510083021 10 360 1.6 6.4 0.00 1.14 0.00 96 1009.7
20260510081516 10 190 0.0 8.0 0.00 1.24 0.00 95 1009.9
20260510080005 10 360 0.0 4.8 0.00 1.32 0.00 95 1010.1
20260510074505 10 360 0.0 0.0 0.00 1.37 0.00 95 1010.5
20260510073008 10 360 0.0 3.2 0.00 1.40 0.00 95 1010.8
20260510071514 10 360 0.0 1.6 0.00 1.40 0.00 95 1011.2
20260510070018 10 251 0.0 1.6 0.00 1.40 0.00 95 1011.0
20260510064507 10 360 1.6 6.4 0.00 1.40 0.00 95 1011.0
20260510063006 10 360 0.0 1.6 0.00 1.40 0.00 95 1010.8
20260510061518 10 360 0.0 1.6 0.00 1.40 0.00 94 1010.4
20260510060040 10 360 0.0 1.6 0.00 1.40 0.00 93 1010.2
20260510054524 10 360 0.0 4.8 0.00 1.40 0.00 94 1010.2
20260510053003 10 200 0.0 1.6 0.00 1.40 0.00 94 1010.6
20260510051509 10 203 0.0 3.2 0.00 1.40 0.00 94 1010.6
20260510050012 10 360 0.0 3.2 0.00 1.40 0.00 94 1010.6
20260510044518 10 360 1.6 6.4 0.00 1.40 0.00 94 1010.2
20260510043022 10 360 1.6 8.0 0.00 1.40 0.00 93 1010.2
20260510041513 10 360 0.0 3.2 0.00 1.40 0.00 92 1010.1
20260510040008 10 360 0.0 3.2 0.00 1.40 0.00 92 1010.4
20260510034514 11 360 0.0 6.4 0.00 1.40 1.40 92 1010.4
20260510033020 11 165 0.0 3.2 0.00 1.40 1.40 92 1010.6
20260510031528 11 161 0.0 6.4 0.00 1.40 1.40 92 1010.4
20260510030025 11 360 0.0 8.0 0.00 1.40 1.40 91 1010.2
20260510024512 11 360 1.6 6.4 0.00 1.40 1.40 92 1010.2
20260510023033 11 360 0.0 4.8 0.00 1.40 1.40 92 1010.4
20260510021521 11 360 0.0 3.2 0.00 1.40 1.40 91 1010.2
20260510020022 11 360 0.0 4.8 0.00 1.40 1.40 91 1010.5
20260510014528 11 360 1.6 6.4 0.00 1.40 1.40 91 1010.5
20260510013014 11 360 1.6 8.0 0.00 1.40 1.40 92 1010.3
20260510011524 11 360 0.0 6.4 0.00 1.40 1.40 91 1010.1
20260510010026 11 360 0.0 9.7 0.00 1.40 1.40 91 1009.9
20260510004522 11 360 1.6 6.4 0.00 1.40 1.40 91 1010.1
20260510003026 11 360 0.0 3.2 0.00 1.40 1.40 91 1009.7
20260510001517 12 360 0.0 4.8 0.00 1.40 1.40 91 1009.6
20260510000020 12 360 1.6 6.4 0.00 1.40 1.40 91 1009.5
20260509234523 12 360 0.0 4.8 0.00 1.40 1.40 90 1009.2
20260509233028 12 360 1.6 14.5 0.00 1.40 1.40 90 1008.9
20260509231526 12 246 0.0 11.3 0.00 1.40 1.40 90 1008.9
20260509230016 12 201 1.6 12.9 0.00 1.40 1.40 91 1008.8
20260509224519 12 360 1.6 16.1 0.00 1.40 1.40 90 1009.0
20260509223026 12 213 0.0 8.0 0.00 1.40 1.40 92 1009.0
20260509221526 12 218 1.6 11.3 0.00 1.40 1.40 92 1009.3
20260509220027 12 150 3.2 14.5 0.00 1.40 1.40 93 1009.0
20260509214515 12 159 4.8 14.5 0.00 1.40 1.40 93 1009.2
20260509213005 12 135 1.6 12.9 0.00 1.40 1.40 93 1009.2
20260509211506 12 139 1.6 11.3 0.00 1.40 1.40 94 1009.3
20260509210008 12 142 3.2 12.9 0.00 1.40 1.40 94 1009.4
20260509204516 12 151 1.6 6.4 0.00 1.40 1.40 94 1009.5
20260509203033 12 155 1.6 14.5 0.00 1.40 1.40 94 1009.7
20260509201505 12 209 4.8 14.5 0.00 1.40 1.40 94 1009.9
20260509200008 12 253 1.6 9.7 0.03 1.40 1.40 95 1010.0
20260509194511 12 252 1.6 11.3 0.08 1.40 1.40 95 1010.3
20260509193013 11 164 1.6 8.0 0.13 1.40 1.40 96 1010.5
20260509191520 11 210 1.6 9.7 0.18 1.40 1.40 95 1010.7
20260509190006 11 227 1.6 8.0 0.20 1.37 1.37 95 1010.6
20260509184509 11 244 0.0 8.0 0.15 1.32 1.32 95 1010.9
20260509183018 11 141 0.0 3.2 0.13 1.27 1.27 95 1010.8
20260509181518 11 135 0.0 3.2 0.10 1.22 1.22 95 1010.9
20260509180020 10 135 0.0 3.2 0.10 1.17 1.17 95 1010.9
20260509174508 10 134 0.0 3.2 0.10 1.17 1.17 95 1010.8
20260509173012 10 134 1.6 6.4 0.10 1.14 1.14 95 1010.9
20260509171516 10 118 0.0 3.2 0.10 1.12 1.12 94 1011.3
20260509170018 10 117 0.0 3.2 0.05 1.07 1.07 95 1011.5
20260509164521 10 115 0.0 3.2 0.08 1.07 1.07 95 1011.8
20260509163035 10 91 1.6 4.8 0.05 1.04 1.04 95 1011.8
20260509161514 9 360 0.0 1.6 0.03 1.02 1.02 94 1012.0
20260509160016 9 84 0.0 3.2 0.05 1.02 1.02 94 1012.1
20260509154520 9 86 0.0 1.6 0.05 0.99 0.99 95 1012.2
20260509153025 8 88 0.0 4.8 0.08 0.99 0.99 95 1012.4
20260509151525 8 341 0.0 4.8 0.10 0.99 0.99 95 1012.4
20260509150012 8 341 0.0 3.2 0.08 0.97 0.97 96 1012.7
20260509144519 8 341 1.6 4.8 0.08 0.94 0.94 96 1012.8
20260509143028 7 344 0.0 3.2 0.05 0.91 0.91 96 1012.8
20260509141529 7 344 1.6 6.4 0.03 0.89 0.89 95 1012.9
20260509140026 7 42 0.0 3.2 0.03 0.89 0.89 96 1012.7
20260509134514 7 42 0.0 1.6 0.00 0.86 0.86 95 1012.7
20260509133022 7 42 0.0 3.2 0.00 0.86 0.86 96 1012.4
20260509131530 6 42 0.0 3.2 0.00 0.86 0.86 96 1012.4
20260509130023 6 336 0.0 1.6 0.00 0.86 0.86 95 1012.7
20260509124510 6 336 0.0 4.8 0.00 0.86 0.86 95 1012.9
20260509123017 6 72 0.0 1.6 0.00 0.86 0.86 96 1012.9
20260509121504 6 71 1.6 3.2 0.03 0.86 0.86 95 1012.9
20260509120012 6 71 0.0 3.2 0.03 0.86 0.86 95 1012.9
20260509114510 6 73 0.0 1.6 0.03 0.86 0.86 95 1012.9
20260509113014 5 73 0.0 1.6 0.03 0.86 0.86 95 1013.0
20260509111519 5 73 0.0 1.6 0.05 0.84 0.84 95 1013.0
20260509110002 5 74 0.0 3.2 0.10 0.84 0.84 95 1013.0